When you browse on this site, cookies collect data to enhance your experience and personalize the content and advertising you see.
Visit our Privacy Policy to learn more. By continuing to use the site, you agree to this use of cookies and data.
  • en France
  • Liste des pays
  • À 7 jours
  • Température de l'eau
  • Carte satellitaire
  • Carte météo
  • Widgets météo
  • user-avatar
    Se connecter

    Météo par heure à Santa Cruz

    Ce jour, 23 Mars, Samedi

    Heure Température Précipitation Vent Pression Humidité
    00:00 +23°C° 0 mm 1 m/s 725 mmHg 71%
    01:00 +22°C° 0 mm 1 m/s 725 mmHg 72%
    02:00 +21°C° 0 mm 2 m/s 725 mmHg 74%
    03:00 +21°C° 0 mm 2 m/s 725 mmHg 74%
    04:00 +21°C° 0 mm 2 m/s 725 mmHg 74%
    05:00 +21°C° 0 mm 2 m/s 725 mmHg 75%
    06:00 +23°C° 0 mm 2 m/s 725 mmHg 72%
    07:00 +22°C° 0 mm 3 m/s 726 mmHg 69%
    08:00 +24°C° 0 mm 3 m/s 726 mmHg 67%
    09:00 +26°C° 0 mm 3 m/s 726 mmHg 60%
    10:00 +28°C° 0 mm 2 m/s 726 mmHg 53%
    11:00 +30°C° 0 mm 2 m/s 727 mmHg 46%
    12:00 +31°C° 0 mm 2 m/s 726 mmHg 44%
    13:00 +32°C° 0 mm 1 m/s 725 mmHg 42%
    14:00 +34°C° 0 mm 1 m/s 724 mmHg 40%
    15:00 +33°C° 0 mm 1 m/s 723 mmHg 42%
    16:00 +33°C° 0 mm 1 m/s 722 mmHg 45%
    17:00 +32°C° 0 mm 1 m/s 722 mmHg 47%
    18:00 +30°C° 0 mm 1 m/s 722 mmHg 52%
    19:00 +28°C° 0 mm 1 m/s 722 mmHg 56%
    20:00 +26°C° 0 mm 1 m/s 722 mmHg 61%
    21:00 +26°C° 0 mm 1 m/s 723 mmHg 63%
    22:00 +25°C° 0 mm 1 m/s 723 mmHg 64%
    23:00 +25°C° 0 mm 1 m/s 724 mmHg 66%

    Demain, 24 Mars, Dimanche

    Heure Température Précipitation Vent Pression Humidité
    00:00 +25°C° 0 mm 1 m/s 724 mmHg 67%
    01:00 +24°C° 0 mm 1 m/s 723 mmHg 68%
    02:00 +24°C° 0 mm 1 m/s 723 mmHg 68%
    03:00 +24°C° 0 mm 1 m/s 723 mmHg 69%
    04:00 +24°C° 0 mm 1 m/s 723 mmHg 70%
    05:00 +21°C° 0 mm 0 m/s 723 mmHg 71%
    06:00 +22°C° 0 mm 0 m/s 723 mmHg 69%
    07:00 +23°C° 0 mm 0 m/s 724 mmHg 67%
    08:00 +24°C° 0 mm 0 m/s 724 mmHg 65%
    09:00 +29°C° 0 mm 1 m/s 725 mmHg 58%
    10:00 +31°C° 0 mm 1 m/s 725 mmHg 52%
    11:00 +34°C° 0 mm 1 m/s 725 mmHg 46%
    12:00 +34°C° 0 mm 1 m/s 724 mmHg 45%
    13:00 +34°C° 0 mm 1 m/s 723 mmHg 44%
    14:00 +35°C° 0 mm 1 m/s 722 mmHg 43%
    15:00 +34°C° 0 mm 1 m/s 722 mmHg 46%
    16:00 +33°C° 0 mm 1 m/s 722 mmHg 50%
    17:00 +32°C° 0 mm 1 m/s 721 mmHg 54%
    18:00 +30°C° 0.6 mm 1 m/s 722 mmHg 63%
    19:00 +28°C° 0.6 mm 1 m/s 722 mmHg 72%
    20:00 +26°C° 0.6 mm 1 m/s 722 mmHg 81%
    21:00 +25°C° 0.8 mm 1 m/s 723 mmHg 85%
    22:00 +25°C° 0.8 mm 2 m/s 723 mmHg 88%
    23:00 +24°C° 0.8 mm 2 m/s 724 mmHg 92%

    Après-demain, 25 Mars, Lundi

    Heure Température Précipitation Vent Pression Humidité
    00:00 +24°C° 1.9 mm 2 m/s 723 mmHg 93%
    01:00 +24°C° 1.9 mm 2 m/s 723 mmHg 94%
    02:00 +23°C° 1.9 mm 2 m/s 723 mmHg 94%
    03:00 +22°C° 0.6 mm 3 m/s 723 mmHg 94%
    04:00 +22°C° 0.6 mm 3 m/s 723 mmHg 94%
    05:00 +22°C° 0.6 mm 3 m/s 722 mmHg 93%
    06:00 +24°C° 0 mm 3 m/s 723 mmHg 90%
    07:00 +25°C° 0 mm 3 m/s 723 mmHg 86%
    08:00 +25°C° 0 mm 3 m/s 724 mmHg 82%
    09:00 +27°C° 0.5 mm 3 m/s 724 mmHg 77%
    10:00 +29°C° 0.5 mm 3 m/s 724 mmHg 72%
    11:00 +30°C° 0.5 mm 3 m/s 725 mmHg 67%
    12:00 +31°C° 0.6 mm 3 m/s 724 mmHg 65%
    13:00 +31°C° 0.6 mm 3 m/s 723 mmHg 62%
    14:00 +33°C° 0.6 mm 3 m/s 722 mmHg 60%
    15:00 +31°C° 0.2 mm 2 m/s 721 mmHg 63%
    16:00 +30°C° 0.2 mm 2 m/s 721 mmHg 67%
    17:00 +30°C° 0.2 mm 2 m/s 721 mmHg 70%
    18:00 +28°C° 0.7 mm 2 m/s 721 mmHg 77%
    19:00 +27°C° 0.7 mm 1 m/s 722 mmHg 83%
    20:00 +25°C° 0.7 mm 1 m/s 722 mmHg 89%
    21:00 +25°C° 0.3 mm 1 m/s 723 mmHg 90%
    22:00 +24°C° 0.3 mm 1 m/s 723 mmHg 91%
    23:00 +24°C° 0.3 mm 1 m/s 723 mmHg 92%

    26 Mars, Mardi

    Heure Température Précipitation Vent Pression Humidité
    00:00 +24°C° 1.1 mm 2 m/s 723 mmHg 93%
    01:00 +23°C° 1.1 mm 2 m/s 723 mmHg 94%
    02:00 +23°C° 1.1 mm 2 m/s 722 mmHg 94%
    03:00 +23°C° 1.6 mm 2 m/s 722 mmHg 95%
    04:00 +23°C° 1.6 mm 2 m/s 722 mmHg 95%
    05:00 +22°C° 1.6 mm 3 m/s 722 mmHg 96%
    06:00 +22°C° 1.3 mm 3 m/s 723 mmHg 95%
    07:00 +22°C° 1.3 mm 3 m/s 723 mmHg 95%
    08:00 +24°C° 1.3 mm 3 m/s 724 mmHg 95%
    09:00 +25°C° 0.1 mm 4 m/s 724 mmHg 86%
    10:00 +27°C° 0.1 mm 4 m/s 725 mmHg 78%
    11:00 +29°C° 0.1 mm 4 m/s 725 mmHg 69%
    12:00 +29°C° 0.1 mm 4 m/s 724 mmHg 69%
    13:00 +29°C° 0.1 mm 4 m/s 724 mmHg 69%
    14:00 +29°C° 0.1 mm 4 m/s 723 mmHg 68%
    15:00 +28°C° 0.1 mm 4 m/s 723 mmHg 70%
    16:00 +28°C° 0.1 mm 4 m/s 723 mmHg 73%
    17:00 +27°C° 0.1 mm 4 m/s 722 mmHg 75%
    18:00 +26°C° 0.4 mm 4 m/s 723 mmHg 78%
    19:00 +25°C° 0.4 mm 4 m/s 723 mmHg 81%
    20:00 +23°C° 0.4 mm 4 m/s 724 mmHg 84%
    21:00 +23°C° 0.1 mm 4 m/s 724 mmHg 83%
    22:00 +23°C° 0.1 mm 4 m/s 725 mmHg 82%
    23:00 +25°C° 0.1 mm 4 m/s 725 mmHg 80%

    27 Mars, Mercredi

    Heure Température Précipitation Vent Pression Humidité
    00:00 +23°C° 0.8 mm 4 m/s 725 mmHg 84%
    01:00 +22°C° 0.8 mm 4 m/s 725 mmHg 89%
    02:00 +22°C° 0.8 mm 4 m/s 724 mmHg 93%
    03:00 +22°C° 0.3 mm 4 m/s 724 mmHg 92%
    04:00 +22°C° 0.3 mm 5 m/s 724 mmHg 92%
    05:00 +21°C° 0.3 mm 5 m/s 725 mmHg 92%
    06:00 +21°C° 0.4 mm 5 m/s 725 mmHg 91%
    07:00 +21°C° 0.4 mm 5 m/s 726 mmHg 91%
    08:00 +21°C° 0.4 mm 5 m/s 726 mmHg 90%
    09:00 +22°C° 0.1 mm 6 m/s 727 mmHg 84%
    10:00 +22°C° 0.1 mm 6 m/s 727 mmHg 78%
    11:00 +23°C° 0.1 mm 6 m/s 727 mmHg 73%
    12:00 +24°C° 0 mm 6 m/s 727 mmHg 67%
    13:00 +27°C° 0 mm 6 m/s 726 mmHg 61%
    14:00 +28°C° 0 mm 6 m/s 726 mmHg 55%
    15:00 +28°C° 0 mm 6 m/s 725 mmHg 56%
    16:00 +27°C° 0 mm 5 m/s 725 mmHg 57%
    17:00 +27°C° 0 mm 5 m/s 725 mmHg 58%
    18:00 +26°C° 0 mm 5 m/s 725 mmHg 58%
    19:00 +26°C° 0 mm 5 m/s 725 mmHg 58%
    20:00 +25°C° 0 mm 5 m/s 726 mmHg 58%
    21:00 +25°C° 0 mm 5 m/s 726 mmHg 57%
    22:00 +25°C° 0 mm 5 m/s 726 mmHg 56%
    23:00 +25°C° 0 mm 5 m/s 727 mmHg 56%

    28 Mars, Jeudi

    Heure Température Précipitation Vent Pression Humidité
    00:00 +25°C° 0 mm 5 m/s 726 mmHg 55%
    01:00 +25°C° 0 mm 5 m/s 726 mmHg 55%
    02:00 +25°C° 0 mm 4 m/s 726 mmHg 55%
    03:00 +25°C° 0 mm 4 m/s 726 mmHg 55%
    04:00 +25°C° 0 mm 4 m/s 726 mmHg 55%
    05:00 +25°C° 0 mm 4 m/s 726 mmHg 55%
    06:00 +25°C° 0 mm 4 m/s 726 mmHg 56%
    07:00 +25°C° 0 mm 5 m/s 727 mmHg 56%
    08:00 +26°C° 0 mm 5 m/s 727 mmHg 56%
    09:00 +27°C° 0 mm 5 m/s 727 mmHg 52%
    10:00 +29°C° 0 mm 5 m/s 727 mmHg 48%
    11:00 +32°C° 0 mm 5 m/s 727 mmHg 44%
    12:00 +33°C° 0 mm 4 m/s 726 mmHg 42%
    13:00 +33°C° 0 mm 4 m/s 725 mmHg 41%
    14:00 +34°C° 0 mm 4 m/s 724 mmHg 40%
    15:00 +34°C° 0 mm 3 m/s 724 mmHg 42%
    16:00 +34°C° 0 mm 3 m/s 723 mmHg 45%
    17:00 +32°C° 0 mm 2 m/s 723 mmHg 48%
    18:00 +30°C° 0 mm 2 m/s 724 mmHg 51%
    19:00 +29°C° 0 mm 2 m/s 724 mmHg 54%
    20:00 +27°C° 0 mm 2 m/s 725 mmHg 57%
    21:00 +27°C° 0 mm 3 m/s 725 mmHg 56%
    22:00 +27°C° 0 mm 3 m/s 725 mmHg 55%
    23:00 +27°C° 0 mm 4 m/s 726 mmHg 54%
    Voir plus